PROFILE

 METAR AND TAF INFORMATION
ADDS - METARS form results

(1248 UTC 26 September 2021)
http://aviationweather.gov/metar/data/
 
LFBD 261230Z AUTO 25014KT 9999 FEW032 23/16 Q1019 TEMPO 4000 SHRA BKN020TCU
LFBD 261200Z AUTO 23012KT 9999 FEW029 23/16 Q1019 TEMPO 4000 SHRA SCT020CB
TAF LFBD 261100Z 2612/2718 24012KT 9999 BKN030 TX23/2614Z TN14/2705Z TEMPO 2612/2615 4000 SHRA BKN020TCU PROB30 TEMPO 2612/2614 SCT020CB TEMPO 2710/2714 28015G25KT 4000 -RA BKN012 BKN030 

 AIRPORT MAP

 RUNWAY INFORMATION
Runway 05 Runway length 10171 ft Runway width 148 ft
Runway elevation 160 ft Runway displaced threshold 0 ft Runway heading 46
Runway 23 Runway length 10171 ft Runway width 148 ft
Runway elevation 151 ft Runway displaced threshold 0 ft Runway heading 226
Runway 11 Runway length 7923 ft Runway width 148 ft
Runway elevation 153 ft Runway displaced threshold 0 ft Runway heading 107
Runway 29 Runway length 7923 ft Runway width 148 ft
Runway elevation 160 ft Runway displaced threshold 0 ft Runway heading 287

 AIRPORT FREQUENCIES
Type APP Name AQUITAINE Frequency 118.6 MHZ
Type ARR Name APP Frequency 121.2 MHZ
Type ATIS Name ATIS Frequency 131.15 MHZ
Type GND Name GND Frequency 121.9 MHZ
Type INFO Name AQUITAINE Frequency 120.575 MHZ
Type OPS Name OPNS Frequency 143.175 MHZ
Type TWR Name TWR Frequency 118.3 MHZ

 AIRPORT NEAR NAVIGATION AIDS
Type NDB Name Bordeaux Frequency 393 KHZ
Type TACAN Name Bordeaux Frequency 114400 KHZ
Type NDB Name Bordeaux Frequency 318 KHZ
Type VOR-DME Name Bordeaux Frequency 113750 KHZ
Type NDB Name Bordeaux Frequency 361 KHZ